Wind_Speed
44 44 44 44 44 44 44 43 42 42 42 41 40 40 40 41 42 41 41 44 44 46 48 46 45 51 53 52 53 51 50 52 54 54 54 55 55 56 57 58 59 60 62 64 63 64 65 66 68 68 69 70 72 74 75 76 77 78 79 80 82 83 84 85 86 88 89 91 93 94 96 97 98 99 100 101 103 105 106 107 108 109 110 112 113 114
45 45 45 44 44 44 44 43 42 41 41 40 39 39 37 37 39 39 38 40 41 42 45 44 43 49 52 51 52 51 50 53 54 53 54 55 56 57 57 58 59 60 62 63 63 64 65 66 67 68 68 69 71 72 74 75 76 77 77 78 79 79 80 81 82 84 85 86 87 88 89 90 91 91 93 94 96 98 99 100 101 103 104 105 106 107
47 46 46 46 45 45 45 44 43 42 41 40 39 39 38 36 36 37 36 36 37 38 41 41 40 48 53 51 51 50 51 54 53 52 55 56 56 57 58 59 60 61 62 63 63 64 64 66 67 67 69 70 70 71 72 74 75 76 76 77 77 77 78 79 80 81 82 83 84 84 85 86 86 87 89 90 91 92 93 94 95 96 96 97 98 99
48 48 47 47 47 47 47 46 45 44 43 42 41 40 39 37 36 37 36 35 35 35 36 36 36 45 52 51 51 50 50 53 53 52 55 56 57 58 59 60 61 62 63 64 65 65 65 66 66 67 69 69 69 70 71 73 73 74 75 75 76 76 76 77 77 78 79 80 80 80 82 82 83 84 86 87 87 88 90 91 91 91 92 92 93 94
50 50 49 49 48 48 48 47 46 46 45 44 43 42 41 40 38 37 37 36 36 35 34 31 29 38 50 50 49 51 51 52 52 53 55 56 57 59 60 61 62 63 64 65 66 67 67 67 68 68 69 69 69 70 71 72 72 72 74 75 75 75 75 75 75 76 77 77 77 78 78 79 80 81 82 83 85 86 87 87 88 88 89 89 90 91
52 51 51 50 50 49 49 48 47 47 47 46 44 44 43 42 41 40 38 37 37 38 37 32 23 28 44 50 47 48 49 49 49 52 55 56 57 59 60 62 63 63 65 66 67 68 68 68 69 69 70 71 70 71 72 72 72 73 74 75 75 75 75 75 75 76 76 76 76 77 77 78 78 79 80 81 83 83 83 84 85 85 86 87 88 88
53 53 53 52 51 51 51 50 49 48 48 48 46 46 45 44 44 43 42 39 38 39 41 38 26 21 36 50 51 49 46 45 45 46 50 53 55 57 59 61 63 64 65 66 67 68 69 70 71 71 71 72 72 73 73 73 73 74 75 76 76 76 76 76 76 76 76 76 76 77 77 78 78 79 80 82 82 81 81 82 83 84 85 86 86 86
55 55 55 55 54 53 53 53 52 51 50 50 49 48 47 46 45 45 45 43 42 40 43 45 34 23 28 44 56 56 49 46 46 45 45 48 49 51 54 57 59 61 63 64 66 67 69 70 71 72 73 73 74 75 75 75 76 77 77 77 77 78 78 78 78 78 77 78 78 78 78 78 79 80 82 82 81 81 81 81 83 84 85 85 85 85
57 57 57 57 56 55 55 55 55 54 53 52 52 51 50 48 47 47 46 46 45 40 43 49 43 31 28 38 55 61 55 51 50 50 49 49 49 49 51 53 54 56 56 58 61 63 66 68 69 71 72 73 74 75 75 76 77 78 79 79 80 80 80 81 81 80 80 80 80 80 80 80 81 82 83 83 82 82 82 82 83 85 86 86 86 86
58 59 59 59 59 57 57 57 57 57 56 55 55 54 53 51 49 49 48 49 47 41 43 50 48 39 31 35 52 62 61 57 55 56 57 56 54 54 54 54 54 53 53 53 55 57 59 61 63 66 68 70 72 73 74 75 76 78 78 79 80 81 82 82 82 82 82 82 82 81 81 82 83 84 85 84 83 83 83 84 85 87 87 87 87 87
61 62 61 62 61 60 59 59 59 60 59 58 57 57 57 54 52 51 49 51 48 43 45 48 49 44 33 33 49 60 63 63 60 60 62 63 62 60 60 59 58 56 54 53 54 55 56 56 58 60 62 64 66 67 69 71 73 75 76 78 79 80 80 81 81 82 82 82 82 82 83 84 85 86 86 86 86 86 86 87 88 89 89 89 89 89
63 64 64 64 64 63 62 62 62 61 62 62 61 61 61 58 56 54 52 53 51 46 47 47 47 44 35 35 46 56 62 66 66 65 66 69 69 67 65 64 63 60 57 57 57 58 58 58 60 61 62 63 64 64 65 66 67 69 71 73 75 78 79 80 80 80 80 80 80 81 82 84 85 87 87 87 88 89 90 90 91 92 91 91 91 91
64 66 67 67 67 66 66 65 65 64 64 64 64 65 64 62 61 58 55 56 54 50 49 48 45 41 37 38 46 53 59 64 68 70 70 73 73 72 71 68 67 65 61 60 61 61 62 62 63 63 64 66 66 67 68 68 67 67 68 68 70 72 75 77 78 78 78 78 78 79 80 81 83 84 85 87 88 90 91 92 93 94 94 94 94 94
64 66 70 71 70 70 70 70 69 68 67 67 67 68 66 67 68 63 59 59 56 53 51 48 45 41 38 42 47 52 56 61 68 72 73 75 76 75 75 73 71 69 66 64 63 63 65 65 65 65 66 67 68 69 70 70 70 70 69 69 68 69 71 72 73 75 76 77 78 79 79 79 80 81 83 84 86 87 88 90 92 93 94 94 95 95
63 64 69 72 73 73 73 74 74 72 72 71 71 71 68 69 72 69 65 63 61 56 50 46 46 42 41 45 49 52 55 60 66 71 74 75 76 77 77 76 74 72 71 69 66 65 65 66 66 66 67 67 68 70 72 73 73 73 72 71 70 70 71 71 71 72 73 74 76 77 77 78 79 80 81 82 83 84 85 86 88 89 91 92 93 94
65 63 67 71 73 74 74 76 77 76 77 76 75 74 73 73 75 76 72 69 68 63 52 48 48 45 46 48 50 54 57 61 66 69 73 75 77 79 78 77 77 75 75 74 71 69 68 68 68 67 67 68 69 71 73 75 77 77 77 76 74 74 74 74 73 74 74 75 75 75 76 77 78 79 80 81 82 82 83 84 85 86 88 89 90 92
71 66 67 70 73 75 75 77 79 80 82 81 79 79 79 78 79 81 80 75 76 72 61 56 52 50 52 50 51 57 60 61 65 68 73 78 79 81 81 80 80 80 80 78 76 75 73 73 73 70 70 71 72 73 75 78 80 81 82 81 80 80 79 78 78 77 77 77 77 77 78 79 79 79 79 80 81 82 83 83 84 85 86 88 89 91
79 72 70 72 74 76 76 78 80 83 85 84 84 83 84 84 83 86 86 82 82 80 72 66 60 58 60 54 53 61 62 63 67 69 74 79 81 82 84 85 85 85 85 83 81 79 78 79 78 76 75 75 75 75 77 80 83 85 86 86 86 85 85 84 83 81 80 80 80 80 81 81 81 82 82 82 83 83 84 85 85 86 87 89 90 91
85 80 75 75 77 77 78 80 82 85 86 86 87 87 87 88 88 90 91 89 90 89 83 77 71 68 68 62 59 63 65 66 69 71 75 79 82 84 85 88 89 89 89 88 86 84 83 83 82 81 80 79 78 77 78 80 83 86 89 90 91 91 91 89 88 86 85 85 84 84 84 84 84 84 85 85 86 86 87 88 89 89 90 91 92 93
90 87 81 79 80 80 80 81 83 85 87 88 88 89 89 91 93 94 95 94 96 97 93 87 82 78 77 72 68 68 68 70 72 73 75 77 81 85 86 87 89 90 91 91 91 89 88 87 86 85 83 83 82 81 81 82 85 87 90 93 95 96 97 96 94 92 91 90 90 89 89 88 88 88 88 89 89 90 90 91 92 93 93 94 95 95
93 92 87 84 84 85 84 84 85 86 88 90 90 90 92 94 97 98 97 96 98 101 99 95 91 87 83 79 76 75 73 74 75 75 76 76 78 81 84 86 88 89 91 92 93 93 92 92 91 90 88 88 87 87 87 88 89 91 92 95 97 99 101 101 100 99 97 96 95 94 94 94 94 94 93 93 93 94 95 95 96 97 97 98 98 98
95 94 92 89 88 88 87 88 89 90 92 93 93 94 95 97 100 101 99 96 97 100 100 99 97 94 88 83 82 81 79 78 77 76 77 78 78 79 81 84 87 89 90 91 92 93 94 95 95 95 94 93 93 93 93 93 94 96 97 98 100 102 103 104 104 104 102 102 101 100 100 100 99 99 99 98 98 98 99 100 100 101 102 102 102 103
96 96 95 93 91 90 89 90 92 94 95 96 97 98 99 99 100 101 100 97 97 96 96 99 100 95 90 87 86 84 82 80 79 78 78 79 79 79 80 81 84 86 88 90 91 91 92 94 95 97 97 97 97 96 97 97 98 100 101 102 103 104 106 106 106 106 106 105 105 105 105 104 104 104 104 103 103 103 103 104 104 105 105 106 106 107
97 98 98 97 94 91 89 92 95 98 99 99 100 99 99 99 98 99 99 98 97 93 92 97 97 91 89 89 87 84 82 81 80 79 78 78 78 78 79 79 81 83 84 86 87 88 89 90 92 94 95 97 97 96 97 97 98 100 102 104 106 107 108 109 109 109 109 109 109 109 109 109 108 108 108 108 107 107 107 108 108 109 109 109 110 110
98 99 100 101 98 93 91 93 96 98 98 99 99 98 97 96 96 97 96 97 96 91 90 95 93 88 87 88 86 84 83 82 81 79 78 77 76 76 77 78 79 80 82 83 85 86 87 88 89 90 92 94 95 95 96 95 96 98 100 102 105 107 109 110 111 112 112 112 113 113 113 112 112 112 112 112 111 111 111 111 111 112 112 112 113 113
100 99 101 103 102 99 98 98 98 97 96 95 94 95 94 93 93 93 93 93 93 89 88 90 89 86 85 85 84 84 83 82 81 80 79 78 77 76 76 77 78 79 81 82 83 85 86 87 89 90 91 93 94 95 96 96 96 97 98 100 102 104 107 108 110 111 112 113 113 114 114 114 115 115 115 114 114 114 114 114 114 114 114 114 115 115
100 99 101 103 104 104 105 105 104 101 98 95 92 91 90 90 89 90 90 89 88 87 85 84 86 85 83 82 82 83 82 82 81 80 80 80 79 78 78 78 79 80 81 82 84 85 87 88 90 91 92 93 95 96 97 98 98 99 99 100 102 103 105 106 108 108 109 110 111 112 113 114 115 115 116 116 116 116 116 116 116 115 116 116 116 117
101 101 103 104 105 105 107 106 104 102 100 96 91 88 87 87 86 86 87 87 86 86 84 82 84 85 82 81 81 81 81 81 81 81 81 80 80 80 80 81 82 83 83 84 85 87 89 90 92 93 94 95 96 97 98 99 100 101 102 103 104 105 106 107 107 108 109 109 109 110 111 112 113 114 114 115 115 115 115 115 115 115 116 116 117 117
103 103 104 104 102 102 103 103 100 98 96 93 90 88 87 87 86 86 87 86 86 87 85 83 84 84 83 82 82 81 81 80 81 82 82 82 82 82 82 83 85 86 87 88 89 90 91 92 94 95 96 97 98 99 100 100 101 102 103 104 106 107 108 109 109 109 110 110 110 110 111 111 111 112 112 112 112 112 112 112 113 113 113 114 115 116
104 104 103 101 98 96 98 98 96 95 94 92 90 90 89 88 88 87 86 86 86 86 85 85 84 83 82 82 82 81 81 80 80 81 82 84 84 84 84 85 86 88 89 90 91 92 93 94 94 95 96 97 98 99 100 101 101 102 103 104 106 107 109 110 111 111 111 112 112 112 112 112 111 111 111 110 110 110 110 111 111 112 112 113 114 115
103 102 100 98 93 92 94 95 93 93 92 91 91 91 90 89 87 86 85 83 83 84 84 83 83 82 81 81 80 80 79 79 79 80 82 84 85 84 84 86 88 89 90 90 91 92 94 94 94 94 94 95 96 97 98 100 100 101 102 103 104 106 108 109 110 111 112 112 113 113 113 112 112 112 111 110 110 111 111 112 112 113 113 114 115 116
101 98 97 95 91 89 91 92 91 91 91 90 90 90 88 87 85 83 82 81 80 80 81 81 81 80 80 80 79 79 80 80 81 81 83 85 87 87 87 87 89 90 91 91 91 92 93 93 92 92 93 93 94 95 95 96 97 98 99 100 101 103 105 107 108 109 110 111 112 112 112 112 112 112 111 111 112 112 113 113 114 114 115 116 117 118
98 96 95 94 91 88 88 88 87 87 86 85 86 85 84 82 80 79 79 78 77 77 77 77 77 77 76 76 76 76 78 80 82 84 86 88 89 88 89 90 91 92 93 92 91 91 91 91 91 91 91 92 92 92 92 92 92 92 94 95 97 99 101 102 104 105 106 108 109 109 110 110 110 111 111 112 113 113 114 114 115 116 117 118 118 119
97 96 95 94 91 87 84 83 81 80 80 80 80 80 78 77 76 74 74 74 75 75 75 75 75 75 75 74 74 74 74 76 79 82 87 89 89 88 89 90 91 92 93 93 92 90 89 89 88 88 89 89 89 89 89 88 87 87 88 89 91 93 95 96 98 100 101 103 104 105 106 107 108 109 110 111 112 113 113 114 115 116 117 118 118 118
96 95 93 91 89 85 82 79 76 74 75 76 75 75 74 74 73 71 70 72 74 74 72 72 73 74 74 74 74 73 72 73 75 80 85 87 87 87 88 89 90 91 91 90 89 88 87 87 86 85 85 86 85 85 84 84 84 83 83 84 85 87 88 90 91 94 96 98 100 101 102 104 105 106 108 109 110 111 112 112 113 114 115 115 116 116
93 90 89 87 85 82 80 79 76 73 74 75 74 73 73 72 72 70 68 70 76 75 72 72 72 72 73 74 74 73 72 71 73 79 84 85 84 85 86 86 87 87 86 86 84 83 84 84 83 82 81 81 81 81 81 80 80 80 80 81 82 83 84 85 86 88 90 92 94 96 97 99 100 102 103 104 105 106 107 108 109 110 111 112 113 113
88 86 85 83 82 80 78 78 77 74 74 75 75 74 73 73 73 71 67 68 74 76 74 73 73 72 73 74 75 75 74 71 73 79 84 83 83 84 85 84 82 81 80 79 78 78 79 80 80 79 79 78 78 78 78 77 76 77 77 78 80 80 80 81 82 84 86 87 89 90 92 93 95 96 98 99 100 101 102 103 104 105 106 107 108 109
85 84 83 82 81 80 78 77 75 74 74 75 76 75 75 75 75 73 70 70 74 76 75 75 75 74 75 75 75 77 76 73 74 80 84 83 83 84 84 82 80 77 75 73 72 72 73 74 75 76 76 76 76 77 76 74 73 74 74 75 76 77 77 78 79 80 82 83 84 86 87 89 90 91 92 93 94 95 96 97 98 99 100 101 103 103
83 82 83 82 81 81 81 80 78 77 75 76 77 77 77 78 78 77 76 75 78 79 78 77 78 78 77 77 78 79 79 77 76 81 85 85 84 84 84 82 80 76 72 70 68 67 67 69 70 71 72 73 73 74 74 73 72 72 72 72 73 74 74 75 76 77 78 79 80 82 83 85 86 87 88 89 89 90 91 91 92 93 95 96 97 98
81 81 82 83 83 83 83 83 83 82 80 80 80 79 79 80 81 80 79 79 80 82 83 82 81 81 81 81 82 82 83 82 79 79 83 85 84 83 82 80 79 77 74 70 67 65 64 64 65 66 68 69 69 69 70 70 70 71 70 70 70 71 72 73 73 74 75 75 77 78 79 81 82 82 83 84 85 86 87 88 89 90 92 93 94 95
81 82 82 83 83 84 85 84 84 84 84 83 83 82 81 81 81 81 81 80 80 81 83 84 83 83 83 83 84 84 85 85 82 79 79 81 82 81 79 77 75 75 74 72 69 66 63 63 63 64 65 65 65 65 65 66 67 68 68 68 68 68 69 70 70 71 72 73 74 75 76 77 78 78 79 80 81 82 83 85 86 87 88 89 89 90
83 83 84 84 85 85 86 86 85 84 85 85 85 85 83 82 81 80 80 81 81 81 82 83 84 84 84 83 83 83 83 83 83 81 79 78 78 77 76 74 72 71 71 71 70 67 63 63 64 65 64 63 62 62 62 63 64 65 65 65 65 66 66 67 67 68 69 70 71 72 73 74 75 76 76 77 78 79 80 81 82 83 84 84 85 85
86 86 86 86 86 86 87 87 86 84 85 86 86 85 85 84 82 81 80 80 82 82 81 81 82 83 82 81 81 81 81 81 81 80 78 76 76 74 73 72 70 68 67 67 68 67 64 63 64 66 65 64 62 61 60 61 62 64 64 63 63 63 63 64 64 65 66 67 68 69 70 71 72 73 74 75 76 76 77 78 78 79 80 80 81 81
88 88 88 88 88 88 88 89 87 86 86 87 87 87 86 85 85 83 81 79 80 81 80 79 79 80 81 80 79 78 79 79 78 78 76 74 74 73 72 71 70 68 66 64 64 64 63 63 64 65 65 65 63 61 60 60 60 62 62 62 62 62 62 62 62 62 63 64 64 65 66 68 69 70 71 72 72 73 73 74 74 75 76 77 78 79
89 90 89 89 90 90 90 90 89 87 87 89 90 90 88 86 86 85 83 80 80 80 79 78 77 78 79 80 79 78 78 78 77 76 75 73 73 72 70 69 69 68 66 64 63 62 61 61 61 62 64 64 63 61 60 60 59 60 61 60 60 61 61 61 61 61 61 62 62 63 64 65 66 67 68 68 69 69 70 70 71 72 73 74 75 76
90 91 91 91 90 90 91 91 90 88 88 89 90 90 89 87 86 86 85 83 82 81 80 80 79 79 80 81 80 79 79 79 77 76 74 73 71 71 69 67 66 66 64 63 63 62 60 59 59 59 61 62 61 60 59 59 58 59 59 59 59 59 59 59 59 60 60 61 61 62 62 63 64 65 65 66 67 67 68 68 69 69 70 71 72 72
91 92 92 92 91 91 90 90 89 88 88 89 90 89 88 87 86 87 87 85 84 82 82 81 80 80 80 81 81 79 77 77 76 74 73 72 71 70 69 67 65 64 62 62 61 61 60 58 58 58 58 59 59 58 57 57 56 57 58 58 57 57 57 57 58 58 59 59 60 60 61 62 62 63 64 64 65 66 66 67 67 67 68 69 69 69
93 93 92 92 92 92 92 91 89 88 89 91 91 89 87 86 85 85 86 86 84 83 82 81 80 79 79 79 80 78 76 76 75 73 71 71 70 69 68 67 65 63 62 60 60 59 58 57 57 57 57 57 56 56 55 55 54 55 55 56 56 56 56 56 56 57 57 58 58 59 59 60 60 61 61 62 63 63 64 64 65 65 66 66 66 67
94 94 94 92 91 92 92 92 91 88 87 89 91 90 88 87 85 83 83 83 83 82 81 80 79 80 80 79 78 76 74 74 74 72 70 68 67 66 66 66 64 63 61 60 59 58 56 55 55 55 55 55 54 54 53 53 53 53 53 53 54 54 54 55 55 55 55 55 56 56 57 57 58 58 59 59 60 60 61 61 62 62 63 63 63 63
95 95 94 93 92 91 91 91 90 87 84 84 85 86 85 85 83 81 81 81 80 79 79 78 77 78 79 79 78 75 73 72 72 71 68 66 65 63 63 63 62 62 61 60 58 57 56 54 54 54 53 53 52 52 52 51 51 51 51 51 52 52 52 53 53 53 53 53 53 54 54 55 55 56 56 57 57 57 58 58 59 59 59 59 60 60
95 94 94 93 91 90 90 90 90 88 85 83 83 83 83 83 82 80 79 78 76 76 76 76 75 75 76 76 77 76 73 71 70 68 66 65 63 61 60 60 60 60 60 59 57 56 55 54 53 52 52 51 50 50 50 50 49 49 48 49 49 50 50 50 51 51 51 51 51 52 52 53 53 53 54 54 55 55 55 56 56 56 56 57 57 57
Wind_Direction
310 308 307 305 305 304 304 304 303 302 302 301 300 299 298 296 293 290 287 285 283 282 281 280 279 277 277 276 275 273 271 269 268 268 268 266 265 265 264 263 263 262 262 261 261 260 259 260 260 260 259 259 260 260 260 260 260 259 259 258 258 257 257 258 258 258 258 259 259 259 259 260 260 260 261 261 261 261 261 261 261 261 261 261 261 262
315 313 311 309 307 305 303 302 301 301 301 301 301 300 300 300 298 296 292 289 287 285 283 283 282 280 278 277 276 275 274 271 269 269 269 268 267 266 265 265 264 263 263 263 262 261 260 260 259 259 259 259 259 260 260 260 260 260 259 259 259 258 258 258 258 258 258 258 259 259 260 260 260 260 260 260 260 261 261 261 261 261 261 261 261 261
320 317 315 313 310 307 305 304 303 302 301 301 301 300 300 300 300 300 298 295 293 289 287 286 285 282 280 278 277 276 275 274 272 272 271 270 269 268 266 266 265 265 265 265 264 263 263 263 262 261 260 260 259 260 261 261 261 261 261 260 260 260 259 259 258 258 258 258 259 259 260 260 260 260 260 260 261 261 261 261 261 261 261 261 261 262
322 320 318 316 314 312 309 308 306 305 303 302 301 301 300 299 300 300 300 299 297 294 292 292 290 285 282 280 278 276 274 274 274 273 272 272 271 270 269 268 267 267 266 266 265 265 264 264 264 264 263 263 262 262 262 262 262 263 263 262 262 261 261 260 260 260 260 260 260 260 260 260 260 260 260 261 261 261 261 261 261 261 261 261 261 261
324 322 321 319 317 315 313 311 309 307 305 303 302 300 299 298 298 298 298 299 298 296 294 295 296 291 285 283 281 279 276 274 274 273 272 271 271 270 270 269 269 268 268 267 267 266 266 265 265 265 265 265 264 263 263 263 263 264 264 263 263 262 262 262 262 262 262 262 261 261 261 261 261 261 261 261 261 260 261 261 261 261 261 261 261 261
325 324 322 321 320 318 316 313 311 309 306 304 302 301 299 298 297 296 295 296 296 296 294 292 294 296 292 288 282 280 279 276 274 273 272 271 270 270 269 269 268 268 268 268 268 268 268 267 267 267 266 266 266 265 265 265 265 265 265 265 265 264 264 264 263 263 263 263 263 262 262 262 262 262 261 261 261 261 261 261 261 261 261 261 261 261
326 325 324 322 322 320 318 316 313 311 308 306 304 302 301 299 298 296 294 293 292 294 294 289 286 291 296 295 288 280 279 280 277 274 273 272 271 270 269 269 268 268 267 268 268 268 268 268 268 268 267 267 267 267 267 267 267 266 266 267 267 267 267 266 265 265 265 264 264 263 263 263 263 263 262 262 261 262 262 262 262 262 262 262 262 262
327 326 325 323 323 322 320 317 315 313 311 308 306 304 302 300 299 297 296 294 291 293 293 290 286 281 289 296 292 283 280 283 282 277 275 274 273 272 271 270 269 268 268 268 268 268 268 268 268 268 268 267 267 267 267 267 266 267 267 267 267 267 267 267 266 266 266 266 265 265 264 264 264 263 263 262 262 262 263 263 263 263 263 263 263 263
327 326 325 324 323 322 320 318 317 315 314 311 309 306 304 302 300 298 298 296 294 295 293 290 290 287 286 292 290 285 282 282 282 280 277 274 273 272 271 271 270 270 270 270 270 269 269 269 269 269 269 268 268 267 267 267 266 266 265 265 265 265 265 265 265 265 265 265 265 265 265 265 265 264 264 264 263 263 263 263 263 263 263 263 263 263
326 325 325 324 323 323 321 319 317 316 315 313 311 309 306 305 303 301 300 296 295 296 292 290 292 292 292 292 288 287 285 283 282 282 280 277 274 273 271 270 269 270 271 271 271 271 270 270 270 270 270 270 269 269 269 268 268 267 267 266 266 265 264 264 264 264 264 264 264 265 265 265 265 265 265 265 265 264 264 264 263 263 263 263 263 263
325 324 324 323 323 323 322 320 318 316 315 313 311 309 307 306 305 304 301 298 298 297 292 291 292 293 295 290 287 288 288 286 285 284 282 280 277 275 274 273 272 271 271 271 271 271 271 272 272 272 271 271 271 271 270 269 269 268 268 267 267 266 266 265 264 264 263 263 263 263 263 263 264 264 264 265 265 265 265 265 264 264 264 264 264 264
323 323 323 323 323 323 322 321 319 317 314 312 310 308 306 307 306 304 302 300 299 298 294 293 293 296 296 286 283 286 287 288 287 284 282 280 279 277 276 275 275 274 273 273 273 274 274 274 274 275 275 275 274 274 273 271 270 269 267 266 266 266 265 265 265 265 265 264 264 263 263 263 263 263 264 264 264 265 265 265 265 265 265 265 265 264
323 322 322 322 322 322 322 321 320 318 315 312 310 307 307 308 305 303 302 300 299 298 295 294 295 297 295 286 280 281 284 287 286 284 283 281 281 280 279 278 277 276 275 275 276 276 277 277 277 277 278 278 278 278 277 275 274 272 270 269 267 266 265 264 264 265 265 265 264 263 263 263 263 263 263 263 263 264 264 264 264 264 264 264 264 264
322 322 322 322 322 322 322 321 320 319 316 312 309 308 309 308 304 303 302 299 297 295 294 295 295 295 292 284 279 279 281 283 283 283 283 283 284 284 284 283 281 280 279 277 276 276 276 276 276 277 277 278 278 278 277 276 275 274 273 272 270 269 268 267 266 265 265 265 264 264 264 263 263 263 263 263 263 263 264 264 264 264 264 264 264 264
320 321 321 321 322 322 321 321 319 318 315 312 310 309 310 308 305 304 303 299 297 295 294 296 293 291 287 281 278 279 279 278 279 281 283 285 285 284 284 284 284 283 282 279 277 275 275 274 274 274 275 275 276 276 276 274 273 272 271 270 270 270 270 270 269 268 267 266 265 265 264 264 263 263 263 263 263 264 264 264 264 265 265 265 264 264
319 321 320 320 320 320 320 320 319 317 314 311 311 311 310 308 307 306 304 302 300 297 297 296 290 287 285 280 279 279 278 278 280 281 283 284 283 283 283 284 284 283 281 280 279 277 276 275 273 272 273 273 274 274 274 272 271 270 269 268 268 268 268 268 269 269 269 268 267 267 266 265 264 264 263 263 263 263 264 264 265 265 266 266 265 265
318 320 320 319 319 319 319 319 317 315 313 312 313 312 310 309 308 307 305 304 303 301 300 298 291 287 286 282 281 282 280 281 281 281 282 282 282 283 284 283 282 281 280 280 279 279 278 277 275 273 273 273 273 273 273 272 271 270 269 268 267 266 266 266 266 266 267 268 268 268 267 267 266 266 265 265 265 264 264 264 265 265 266 266 266 266
316 319 320 319 318 318 318 318 316 314 312 312 312 311 310 309 308 307 306 306 305 303 302 300 296 292 290 284 281 283 283 281 279 278 277 278 280 281 281 281 281 280 279 279 279 278 277 276 275 274 273 272 272 272 272 271 272 272 271 270 269 267 266 266 265 265 265 266 266 266 267 267 267 267 267 267 267 266 266 266 266 266 266 266 266 266
315 317 320 319 318 317 318 316 314 313 312 312 311 310 309 309 308 307 307 307 306 305 304 303 301 298 295 290 285 285 284 280 277 275 274 274 275 276 277 278 279 279 279 278 277 276 274 273 272 271 271 270 269 268 268 269 270 272 272 272 272 271 269 268 267 266 266 266 266 265 266 266 267 267 267 267 267 267 266 266 266 265 265 266 266 266
315 316 318 319 317 316 316 315 313 312 311 310 309 309 309 308 307 306 307 307 306 305 305 304 303 301 297 295 291 288 284 280 278 276 274 272 272 273 275 277 278 278 278 278 277 275 273 272 270 269 268 267 266 265 264 264 266 268 270 272 272 272 272 271 270 269 268 268 267 267 266 266 267 267 267 267 267 267 267 267 266 266 266 265 266 266
314 315 317 318 316 316 316 314 312 311 309 308 308 309 308 307 307 306 306 306 305 304 304 303 303 300 298 296 294 290 286 283 281 280 278 276 273 272 272 273 274 275 275 276 275 275 274 272 270 268 266 265 264 263 262 262 263 264 266 268 270 271 272 272 272 272 271 271 270 269 269 268 268 268 268 268 268 268 268 268 267 267 267 266 266 266
313 314 316 316 315 315 314 313 312 310 308 308 308 308 308 306 306 305 305 305 304 302 302 302 300 299 298 297 295 292 289 287 285 283 281 279 276 273 271 270 270 271 271 272 272 273 273 273 272 270 268 266 264 263 262 262 262 262 263 264 266 268 269 271 271 272 272 271 271 270 270 269 269 268 268 268 268 268 268 268 268 268 268 268 267 267
313 314 314 314 314 314 314 313 311 309 307 308 308 307 306 305 305 304 304 303 302 301 301 300 297 297 298 297 294 292 291 289 287 285 282 280 278 276 273 271 270 269 270 270 270 270 271 271 272 272 271 269 267 265 264 263 262 262 263 263 264 265 266 268 269 270 270 270 270 270 269 269 269 268 268 268 268 268 268 268 268 269 269 269 269 268
313 313 313 313 312 313 313 312 309 307 307 307 306 305 305 304 304 303 302 301 299 299 299 296 295 297 298 295 293 293 291 289 287 284 282 281 279 278 276 275 273 272 272 271 271 271 270 270 270 270 271 270 269 268 266 265 264 263 263 264 264 264 265 265 266 267 268 268 269 269 269 269 269 269 268 268 268 268 268 268 268 269 269 269 269 269
313 313 313 312 311 312 312 309 306 306 305 305 305 305 304 303 302 301 300 298 298 298 297 295 296 298 296 295 295 294 292 290 288 286 284 282 280 279 277 276 275 274 273 273 272 272 271 271 270 269 269 270 270 269 268 267 266 265 264 264 264 264 264 265 265 265 266 267 267 268 268 269 269 269 269 268 268 268 268 268 268 268 269 269 269 270
313 313 312 311 311 312 312 309 307 306 305 304 304 304 303 302 300 299 298 297 297 297 296 296 297 296 295 295 294 293 292 291 289 288 286 284 282 280 279 277 276 275 274 273 273 273 272 271 271 270 269 269 269 269 268 268 267 266 265 264 264 264 264 264 264 265 265 265 266 266 267 267 268 268 268 268 268 268 268 268 268 268 269 269 269 269
311 311 311 310 311 312 311 309 308 307 306 305 304 303 302 301 299 298 297 297 297 297 296 296 296 295 295 294 293 292 292 291 289 288 287 285 284 283 281 280 278 277 276 275 274 274 273 272 271 270 269 269 268 268 268 267 267 266 265 265 264 264 264 264 264 264 264 265 265 265 265 266 266 266 267 267 267 267 268 268 268 269 269 269 269 269
311 311 311 311 311 311 309 308 307 306 306 305 305 304 302 301 300 300 299 300 299 299 298 297 296 295 295 294 293 292 291 290 289 288 287 286 285 285 284 283 282 280 279 278 276 275 274 273 272 271 270 269 268 267 266 266 265 265 265 265 264 264 264 264 264 264 264 264 264 264 264 264 265 265 265 266 266 267 267 268 268 268 268 268 268 268
311 311 311 310 310 309 307 306 306 306 306 306 306 306 304 303 303 302 302 302 301 300 300 298 296 295 295 294 293 292 290 290 289 288 288 287 286 285 284 283 282 282 281 280 279 278 276 275 274 273 272 271 270 268 267 266 265 264 264 263 263 263 263 263 263 263 263 263 264 264 264 264 264 265 265 265 266 266 266 266 266 266 266 267 267 267
311 311 310 309 309 309 307 306 307 308 308 308 308 307 306 305 305 304 303 302 301 299 298 297 295 294 293 292 291 290 289 289 288 287 287 286 285 284 283 282 281 281 281 281 280 280 278 277 276 274 273 272 271 270 269 267 266 265 264 263 263 263 263 263 263 263 263 263 263 263 263 264 264 264 264 265 265 265 265 265 265 265 265 266 266 266
311 310 309 309 310 310 309 308 309 309 309 309 308 307 306 305 304 303 302 300 298 297 296 295 295 294 293 291 291 290 289 288 287 286 284 284 283 282 282 281 281 281 281 281 281 280 279 278 277 276 274 273 272 270 269 268 267 266 265 264 263 263 263 263 263 263 263 263 263 263 263 263 264 264 264 264 264 264 264 265 265 265 265 265 266 266
311 311 310 311 312 312 311 310 311 310 309 308 306 304 304 304 303 302 300 299 298 297 296 296 295 295 294 293 293 293 292 291 290 289 287 286 286 286 285 285 284 284 284 283 283 282 281 280 278 277 276 274 273 271 270 269 268 267 266 265 265 264 263 263 263 263 263 263 263 263 263 264 264 264 264 264 264 264 264 264 264 264 265 265 265 265
312 313 313 313 314 313 311 310 309 307 306 304 303 302 302 302 302 301 301 300 299 297 295 294 293 293 292 292 292 292 292 292 292 291 290 289 288 289 289 288 287 287 286 286 284 283 282 281 279 278 277 276 274 273 271 270 268 267 267 266 266 265 265 264 264 264 264 264 264 264 264 264 264 264 264 264 263 263 263 263 264 264 264 265 265 265
315 315 314 313 313 312 310 308 306 305 304 302 301 302 302 301 301 301 301 300 298 296 294 294 293 292 291 290 289 288 288 289 290 290 290 289 289 290 290 290 289 289 288 287 286 284 283 281 280 279 278 276 275 274 272 271 270 269 268 267 267 266 266 265 265 265 265 265 264 264 264 264 264 264 264 264 264 264 264 264 264 264 265 265 266 267
315 314 313 312 311 310 309 307 306 306 305 303 302 302 302 301 300 300 300 299 296 294 294 293 292 291 291 290 289 288 288 288 290 290 289 289 289 290 290 290 289 289 288 287 286 285 283 282 281 279 278 277 275 274 273 272 272 271 270 269 268 267 267 266 266 266 266 265 265 265 265 265 264 264 264 264 265 265 265 266 266 266 267 267 268 269
313 312 311 311 311 311 310 310 309 309 307 305 305 305 304 303 302 301 302 301 298 297 296 295 294 294 293 292 292 291 291 292 294 294 291 290 291 291 290 290 289 289 288 286 285 284 283 282 281 280 278 277 276 275 274 273 272 272 271 270 269 268 268 267 267 266 266 266 266 266 266 266 266 266 266 266 266 266 267 267 267 267 268 268 269 269
312 312 312 312 312 312 312 312 312 311 310 309 308 307 306 305 304 303 302 301 299 299 300 299 298 298 297 297 297 296 296 296 298 298 296 295 295 294 293 292 290 289 287 286 285 284 283 282 282 280 279 278 277 276 275 274 273 272 272 271 270 269 269 268 267 267 267 267 267 267 267 267 266 266 266 266 266 266 267 267 267 267 268 268 268 269
314 314 314 314 314 314 313 313 312 312 312 311 310 309 308 307 306 305 305 304 302 301 302 302 301 301 301 301 301 301 301 302 303 301 299 299 299 297 296 295 293 291 288 287 285 284 283 282 281 280 279 278 277 277 276 276 275 274 273 272 271 271 270 269 268 268 267 267 267 267 267 267 267 267 267 267 267 267 267 267 268 268 268 268 268 268
316 316 316 316 316 316 316 315 315 314 314 313 312 311 310 310 309 309 309 308 307 306 305 305 305 305 305 305 305 305 305 305 305 304 302 302 302 300 299 298 296 294 292 289 287 285 283 281 279 278 278 277 277 277 277 277 276 275 274 273 272 272 271 270 269 269 268 267 267 267 267 267 267 267 267 267 267 268 268 268 268 268 268 268 268 268
318 318 318 318 319 318 318 317 317 316 316 315 313 312 312 312 311 311 311 310 309 308 308 308 307 307 308 308 308 308 307 306 306 305 303 303 303 302 300 299 298 297 295 293 290 288 285 282 279 277 277 276 276 276 276 276 276 276 275 274 272 271 271 270 269 269 268 268 267 267 266 266 266 266 266 266 267 267 267 267 267 267 267 267 267 267
319 320 320 320 319 319 318 317 317 317 316 315 313 313 312 311 311 311 310 309 308 308 307 308 308 308 307 307 307 306 305 305 305 305 304 304 303 302 301 300 299 298 297 296 294 291 289 286 283 280 278 277 276 276 276 275 274 274 273 273 272 271 270 270 269 269 269 268 268 267 267 267 266 266 266 266 266 266 266 266 266 266 267 267 267 268
321 321 321 320 319 319 318 317 316 316 315 314 312 312 311 311 310 310 309 308 308 307 307 307 306 306 305 305 304 303 303 304 305 306 306 304 303 301 301 300 299 298 297 296 295 293 292 289 287 284 282 281 280 279 278 277 276 275 273 272 272 271 270 270 270 269 269 269 269 269 269 268 268 268 267 267 267 266 267 267 267 268 268 269 269 269
322 321 320 320 319 318 317 316 315 315 314 312 311 310 310 310 310 309 309 308 307 306 306 305 304 303 302 302 302 302 303 304 305 305 306 305 303 302 301 301 300 298 297 295 294 293 292 290 288 287 286 285 284 282 281 280 279 278 277 276 275 273 272 271 270 270 269 269 268 268 268 269 269 269 268 268 268 268 268 268 268 268 269 269 269 269
321 320 320 319 318 318 317 315 315 315 313 312 311 310 310 310 310 309 308 307 306 305 304 303 302 302 302 302 303 303 304 305 305 306 307 306 305 304 303 302 301 299 298 295 293 292 291 290 288 288 288 287 287 285 283 281 280 279 279 278 278 277 276 274 273 272 271 270 269 269 268 268 268 268 268 268 268 268 268 268 268 268 268 268 268 268
320 319 319 319 318 318 317 316 315 315 314 312 311 310 311 311 310 309 309 308 306 305 305 304 304 304 304 305 306 306 306 307 307 308 308 307 305 303 302 301 300 299 298 297 295 293 291 290 289 288 288 288 288 287 285 283 282 281 280 279 278 278 277 276 276 275 274 274 273 272 271 270 270 269 269 269 269 268 268 268 268 267 267 267 267 268
319 319 318 318 317 317 316 315 315 315 314 312 311 310 311 311 310 309 309 309 309 308 308 308 308 308 308 307 308 308 308 308 309 308 308 307 305 303 302 300 299 298 298 297 296 295 293 292 290 288 287 287 287 286 285 284 283 282 281 280 279 278 278 277 277 276 276 275 274 274 273 273 272 272 271 271 271 270 270 270 270 269 269 269 269 270
319 318 318 317 317 316 315 315 314 314 314 312 310 310 311 311 311 311 311 311 311 311 310 310 310 310 309 308 308 308 308 308 308 309 308 308 306 304 302 301 300 299 298 297 296 295 294 293 291 289 287 286 285 285 284 284 283 282 281 281 280 279 278 278 277 276 276 275 275 274 274 273 273 272 272 272 271 271 271 271 271 271 271 271 271 271
318 318 317 317 317 316 315 315 315 315 314 313 312 312 313 312 312 312 311 311 311 311 311 311 310 309 308 307 307 309 309 309 309 309 309 308 306 304 303 302 301 300 298 297 296 295 295 294 292 290 288 287 286 285 284 283 282 281 280 280 280 279 278 277 277 276 276 275 275 274 274 273 273 272 272 271 271 271 271 271 271 271 271 271 271 271
318 318 317 317 317 316 315 315 315 315 315 313 312 313 314 313 312 312 311 310 310 311 311 311 310 309 308 308 309 310 310 310 309 309 309 307 305 304 303 302 301 300 299 298 297 297 296 294 292 290 289 288 287 286 285 283 282 281 280 280 279 279 278 278 277 277 276 275 275 274 274 273 273 272 272 272 271 271 271 271 270 270 270 270 271 270
318 318 318 317 317 316 315 315 314 314 314 312 311 312 312 311 311 311 311 310 311 310 310 310 309 308 308 309 310 311 311 310 309 309 308 306 304 303 302 301 301 300 299 299 298 298 297 295 293 291 290 289 287 286 285 283 282 281 280 280 279 279 279 278 278 277 277 276 276 275 275 274 274 274 273 273 273 272 272 272 271 271 271 271 271 271
318 318 318 317 317 316 316 315 314 314 314 313 313 313 312 311 312 312 311 311 311 310 309 308 308 308 309 310 310 311 310 310 309 308 307 306 304 303 302 301 301 300 300 299 299 298 297 295 293 292 290 289 288 286 285 284 282 281 281 280 280 280 279 279 278 278 278 278 277 276 276 275 275 275 274 274 274 273 273 273 273 272 272 272 272 271
Height
10562 10558 10554 10551 10547 10543 10540 10537 10534 10530 10527 10524 10520 10516 10514 10510 10506 10506 10504 10500 10499 10497 10493 10496 10496 10488 10486 10487 10486 10488 10490 10486 10482 10483 10483 10481 10481 10480 10479 10478 10477 10476 10473 10472 10475 10474 10473 10473 10472 10473 10473 10473 10471 10468 10467 10468 10468 10469 10470 10472 10472 10471 10473 10474 10472 10471 10470 10469 10468 10467 10468 10468 10468 10470 10469 10468 10467 10466 10467 10469 10471 10471 10470 10470 10470 10471
10557 10554 10550 10546 10543 10539 10536 10533 10530 10527 10523 10520 10516 10512 10510 10506 10502 10500 10499 10496 10494 10492 10488 10490 10491 10482 10478 10480 10479 10480 10481 10477 10476 10477 10475 10473 10473 10472 10471 10469 10468 10467 10464 10464 10465 10464 10465 10464 10463 10464 10464 10463 10462 10460 10459 10458 10457 10457 10459 10459 10460 10461 10462 10462 10461 10461 10460 10458 10457 10457 10458 10458 10458 10459 10457 10456 10455 10454 10454 10455 10456 10456 10457 10457 10457 10458
10552 10548 10545 10541 10538 10534 10531 10528 10525 10521 10518 10515 10512 10508 10505 10503 10498 10495 10494 10491 10489 10488 10484 10485 10486 10476 10469 10473 10472 10473 10473 10468 10469 10471 10467 10465 10465 10463 10463 10461 10459 10458 10456 10456 10455 10455 10455 10454 10454 10454 10453 10453 10454 10453 10450 10448 10447 10448 10448 10449 10449 10450 10450 10450 10450 10450 10448 10448 10448 10448 10448 10448 10448 10447 10445 10444 10444 10443 10442 10442 10443 10444 10445 10446 10446 10445
10547 10544 10540 10537 10533 10529 10525 10522 10519 10516 10513 10510 10507 10504 10501 10498 10495 10491 10489 10487 10484 10483 10481 10481 10481 10471 10462 10465 10465 10466 10466 10461 10462 10464 10459 10457 10457 10455 10454 10453 10451 10450 10448 10447 10446 10446 10446 10446 10445 10444 10443 10444 10446 10445 10442 10439 10439 10439 10438 10438 10438 10439 10439 10439 10439 10438 10437 10438 10438 10438 10437 10437 10437 10436 10434 10433 10433 10432 10430 10430 10431 10432 10433 10434 10434 10433
10543 10539 10535 10532 10528 10525 10521 10517 10514 10511 10508 10505 10503 10499 10496 10493 10491 10488 10485 10483 10479 10477 10477 10478 10478 10468 10456 10457 10458 10457 10457 10456 10456 10455 10452 10450 10449 10447 10446 10444 10443 10441 10439 10438 10437 10436 10437 10436 10436 10435 10434 10434 10435 10435 10432 10431 10431 10430 10428 10426 10427 10428 10429 10429 10429 10428 10427 10427 10428 10427 10427 10426 10426 10425 10424 10423 10421 10420 10421 10420 10420 10421 10422 10421 10420 10420
10538 10535 10531 10527 10524 10520 10516 10513 10510 10507 10503 10500 10498 10494 10491 10489 10486 10484 10482 10479 10476 10472 10471 10473 10477 10468 10452 10447 10451 10450 10448 10448 10450 10448 10444 10443 10442 10440 10438 10436 10434 10433 10431 10429 10428 10426 10427 10426 10426 10426 10425 10424 10425 10423 10422 10423 10423 10421 10418 10416 10417 10418 10419 10418 10418 10417 10417 10417 10417 10417 10416 10415 10415 10414 10413 10411 10409 10410 10411 10410 10410 10410 10409 10408 10408 10409
10534 10530 10526 10522 10519 10515 10511 10508 10505 10502 10498 10495 10492 10489 10486 10484 10481 10479 10477 10476 10473 10469 10464 10465 10473 10471 10454 10439 10438 10442 10441 10440 10442 10441 10438 10436 10434 10432 10430 10427 10426 10425 10423 10421 10419 10418 10417 10416 10416 10416 10415 10415 10414 10412 10413 10414 10413 10410 10409 10408 10408 10408 10407 10407 10407 10407 10407 10407 10406 10406 10405 10404 10404 10404 10401 10398 10398 10400 10401 10400 10399 10397 10396 10396 10397 10398
10529 10525 10522 10518 10514 10510 10506 10502 10499 10496 10493 10489 10486 10484 10481 10478 10476 10473 10472 10470 10468 10467 10459 10455 10464 10470 10460 10441 10427 10428 10434 10433 10432 10432 10431 10428 10426 10424 10421 10419 10417 10416 10415 10413 10411 10410 10408 10407 10406 10405 10404 10405 10404 10402 10403 10403 10402 10400 10400 10399 10398 10397 10396 10395 10395 10396 10396 10395 10395 10394 10394 10394 10393 10391 10387 10386 10389 10390 10390 10389 10387 10385 10384 10384 10385 10386
10526 10521 10517 10513 10509 10506 10501 10497 10493 10490 10487 10483 10480 10477 10474 10473 10470 10467 10466 10463 10462 10464 10456 10447 10453 10461 10460 10445 10424 10418 10425 10426 10423 10422 10421 10419 10418 10416 10413 10411 10409 10408 10407 10406 10403 10402 10400 10398 10397 10395 10394 10394 10393 10392 10393 10393 10391 10390 10389 10388 10387 10387 10386 10384 10384 10385 10385 10384 10383 10383 10383 10383 10380 10378 10375 10376 10378 10379 10378 10377 10375 10373 10372 10372 10373 10375
10521 10517 10512 10508 10504 10501 10496 10491 10487 10483 10480 10477 10473 10470 10467 10466 10464 10461 10460 10456 10455 10459 10452 10443 10444 10451 10455 10443 10421 10412 10415 10415 10415 10412 10408 10408 10408 10407 10405 10403 10402 10401 10400 10399 10396 10394 10392 10390 10388 10387 10385 10383 10382 10382 10382 10381 10380 10378 10377 10377 10376 10374 10373 10373 10373 10373 10373 10372 10372 10372 10372 10370 10368 10366 10364 10365 10366 10366 10366 10366 10363 10361 10360 10361 10362 10363
10517 10512 10507 10503 10499 10496 10491 10486 10482 10477 10474 10470 10466 10463 10460 10458 10457 10455 10453 10449 10449 10452 10447 10441 10439 10442 10449 10440 10419 10407 10404 10403 10405 10402 10397 10394 10395 10396 10395 10393 10393 10393 10393 10391 10389 10386 10385 10383 10381 10379 10377 10374 10373 10373 10372 10370 10369 10368 10367 10365 10363 10361 10360 10360 10359 10360 10361 10361 10362 10361 10359 10357 10356 10354 10353 10354 10355 10354 10353 10353 10351 10349 10349 10350 10351 10350
10512 10506 10502 10497 10493 10490 10486 10481 10476 10472 10467 10462 10459 10455 10452 10451 10449 10447 10446 10442 10442 10444 10441 10438 10436 10437 10442 10436 10419 10405 10398 10394 10391 10390 10386 10382 10382 10384 10384 10385 10384 10385 10385 10383 10382 10379 10377 10375 10373 10370 10368 10365 10364 10362 10361 10359 10358 10358 10356 10354 10353 10350 10348 10347 10347 10347 10348 10348 10349 10348 10346 10345 10343 10342 10343 10344 10342 10341 10341 10340 10338 10337 10338 10338 10338 10338
10508 10500 10495 10491 10487 10483 10479 10475 10470 10466 10460 10454 10450 10445 10442 10441 10438 10438 10439 10434 10434 10435 10433 10432 10432 10433 10435 10429 10416 10404 10397 10389 10379 10375 10374 10371 10371 10372 10373 10376 10376 10376 10377 10377 10375 10372 10369 10366 10364 10362 10359 10356 10354 10351 10349 10347 10346 10346 10344 10343 10342 10339 10337 10336 10336 10336 10336 10336 10336 10335 10334 10333 10332 10332 10333 10331 10329 10328 10328 10327 10325 10324 10324 10324 10325 10325
10507 10498 10489 10483 10480 10475 10470 10466 10461 10457 10452 10446 10442 10437 10435 10430 10423 10426 10429 10425 10425 10427 10426 10427 10427 10428 10428 10421 10411 10401 10395 10385 10372 10365 10363 10361 10362 10362 10362 10364 10365 10367 10368 10369 10368 10364 10361 10358 10356 10354 10351 10347 10344 10340 10337 10336 10334 10333 10332 10331 10330 10328 10326 10326 10326 10325 10325 10324 10323 10322 10323 10323 10322 10321 10321 10320 10318 10317 10316 10315 10313 10312 10311 10312 10312 10311
10505 10500 10488 10479 10474 10469 10463 10457 10451 10447 10442 10437 10433 10428 10427 10422 10411 10411 10414 10412 10412 10415 10420 10421 10418 10420 10419 10412 10404 10397 10389 10380 10370 10362 10358 10356 10354 10352 10353 10353 10354 10355 10355 10356 10358 10355 10352 10350 10348 10346 10342 10338 10335 10330 10327 10324 10322 10321 10320 10319 10319 10318 10316 10315 10314 10314 10313 10312 10311 10311 10312 10311 10310 10309 10309 10308 10307 10306 10304 10303 10301 10300 10299 10299 10298 10297
10498 10498 10488 10478 10471 10464 10459 10451 10443 10438 10430 10426 10424 10419 10416 10413 10403 10397 10398 10398 10395 10398 10409 10412 10408 10408 10407 10402 10397 10389 10382 10376 10369 10362 10356 10351 10345 10342 10343 10344 10343 10343 10342 10342 10344 10344 10342 10339 10337 10337 10334 10330 10326 10321 10317 10313 10311 10310 10309 10308 10308 10307 10305 10305 10304 10302 10301 10300 10299 10300 10299 10297 10297 10297 10297 10296 10295 10294 10293 10291 10290 10289 10287 10285 10284 10283
10484 10490 10486 10476 10468 10461 10455 10447 10437 10429 10420 10414 10413 10409 10403 10401 10395 10385 10382 10385 10380 10379 10390 10396 10396 10395 10392 10391 10387 10379 10376 10372 10365 10358 10349 10341 10336 10332 10331 10330 10329 10328 10328 10329 10330 10331 10331 10327 10326 10327 10325 10320 10316 10311 10307 10303 10300 10298 10297 10295 10295 10294 10293 10294 10293 10291 10290 10288 10288 10287 10286 10284 10284 10284 10284 10284 10282 10282 10281 10280 10279 10277 10275 10273 10271 10269
10467 10476 10478 10471 10462 10455 10449 10441 10432 10421 10411 10406 10402 10397 10392 10388 10384 10375 10368 10369 10367 10363 10369 10376 10380 10378 10375 10378 10376 10368 10367 10364 10356 10350 10341 10332 10328 10324 10320 10316 10314 10314 10314 10315 10317 10317 10317 10314 10313 10315 10313 10309 10306 10302 10297 10292 10288 10286 10283 10281 10280 10280 10280 10280 10280 10279 10279 10277 10276 10275 10273 10272 10272 10271 10271 10271 10269 10268 10268 10268 10267 10265 10263 10260 10258 10257
10452 10459 10467 10463 10454 10448 10443 10434 10425 10413 10404 10399 10392 10387 10382 10376 10372 10365 10357 10355 10351 10346 10349 10354 10360 10360 10355 10359 10361 10355 10352 10348 10342 10338 10332 10325 10319 10314 10311 10306 10301 10300 10299 10299 10300 10301 10301 10300 10300 10301 10299 10296 10294 10291 10287 10282 10278 10274 10269 10267 10265 10264 10264 10264 10265 10265 10265 10264 10263 10262 10262 10260 10259 10258 10257 10256 10256 10255 10254 10254 10252 10251 10250 10248 10246 10245
10442 10442 10451 10453 10445 10439 10436 10427 10418 10408 10397 10390 10385 10379 10373 10365 10359 10353 10348 10345 10336 10329 10329 10332 10338 10340 10336 10338 10340 10337 10334 10330 10326 10323 10319 10317 10311 10304 10301 10297 10292 10287 10284 10282 10281 10281 10282 10282 10283 10284 10283 10282 10280 10278 10276 10272 10268 10263 10258 10254 10250 10248 10247 10247 10248 10248 10249 10250 10249 10249 10249 10248 10246 10245 10244 10242 10241 10240 10239 10238 10237 10237 10236 10234 10233 10232
10433 10429 10434 10438 10432 10428 10425 10415 10407 10401 10390 10381 10376 10372 10365 10356 10348 10340 10338 10338 10328 10315 10312 10311 10313 10316 10317 10319 10319 10317 10314 10311 10309 10308 10305 10303 10301 10295 10289 10284 10280 10275 10270 10267 10264 10262 10262 10261 10263 10264 10265 10265 10265 10263 10262 10259 10256 10253 10249 10244 10238 10235 10232 10231 10231 10232 10233 10233 10233 10234 10234 10233 10231 10230 10229 10228 10227 10225 10224 10223 10222 10221 10220 10219 10219 10218
10425 10420 10420 10423 10420 10417 10413 10403 10394 10387 10379 10371 10366 10361 10355 10346 10338 10328 10324 10327 10321 10307 10300 10295 10290 10292 10298 10301 10298 10295 10293 10292 10291 10291 10288 10285 10283 10280 10275 10270 10266 10261 10257 10253 10250 10247 10244 10241 10241 10242 10244 10246 10247 10246 10246 10244 10242 10239 10236 10233 10228 10224 10220 10217 10216 10216 10217 10217 10217 10217 10217 10216 10215 10215 10214 10213 10212 10211 10209 10207 10206 10205 10204 10203 10203 10202
10416 10411 10407 10407 10407 10406 10401 10393 10383 10374 10367 10362 10355 10350 10343 10336 10329 10318 10310 10310 10307 10300 10294 10282 10271 10274 10281 10281 10277 10276 10275 10273 10272 10271 10268 10265 10263 10260 10258 10255 10250 10246 10243 10240 10237 10234 10231 10227 10224 10223 10223 10225 10226 10227 10228 10228 10226 10224 10221 10218 10216 10212 10209 10206 10204 10202 10201 10201 10200 10200 10199 10199 10199 10198 10198 10198 10197 10196 10194 10192 10191 10189 10187 10186 10185 10185
10409 10402 10395 10392 10393 10396 10394 10384 10370 10361 10355 10351 10345 10338 10331 10324 10317 10308 10300 10293 10287 10290 10286 10267 10258 10265 10266 10259 10258 10260 10259 10255 10253 10252 10250 10248 10246 10243 10241 10239 10235 10231 10228 10225 10222 10220 10218 10215 10212 10208 10206 10205 10205 10207 10208 10209 10209 10207 10205 10203 10200 10198 10195 10192 10191 10188 10187 10185 10184 10183 10183 10183 10183 10182 10181 10181 10181 10180 10179 10177 10175 10173 10172 10170 10169 10168
10400 10394 10383 10374 10373 10379 10383 10376 10363 10355 10348 10340 10333 10327 10320 10314 10306 10296 10289 10279 10271 10276 10273 10253 10248 10257 10252 10242 10241 10241 10239 10236 10233 10232 10232 10230 10230 10228 10225 10222 10220 10216 10213 10210 10207 10205 10203 10200 10198 10195 10192 10189 10188 10187 10188 10189 10190 10189 10188 10186 10183 10181 10178 10177 10175 10174 10173 10171 10169 10168 10167 10167 10166 10165 10164 10163 10163 10163 10162 10161 10159 10158 10156 10155 10153 10152
10390 10386 10374 10361 10356 10357 10357 10352 10345 10341 10339 10333 10326 10318 10309 10302 10294 10283 10276 10268 10260 10261 10259 10245 10238 10241 10238 10232 10228 10223 10220 10219 10216 10214 10212 10211 10211 10211 10208 10206 10204 10201 10198 10195 10192 10190 10188 10185 10182 10180 10178 10175 10172 10171 10170 10170 10170 10169 10169 10168 10166 10164 10162 10160 10159 10158 10157 10156 10155 10154 10153 10151 10149 10148 10147 10146 10146 10145 10144 10143 10142 10141 10140 10139 10137 10136
10380 10377 10366 10354 10347 10342 10333 10325 10318 10313 10313 10314 10313 10307 10297 10288 10281 10271 10261 10256 10251 10246 10246 10240 10228 10224 10225 10223 10216 10211 10207 10204 10201 10198 10196 10193 10192 10192 10190 10188 10186 10184 10182 10180 10177 10175 10172 10169 10166 10163 10161 10159 10157 10155 10153 10152 10151 10150 10150 10149 10147 10146 10145 10142 10141 10141 10141 10140 10140 10139 10137 10135 10133 10131 10131 10130 10129 10129 10128 10127 10126 10125 10124 10122 10121 10119
10368 10364 10355 10345 10340 10332 10318 10309 10303 10295 10291 10291 10292 10290 10283 10274 10267 10259 10249 10244 10239 10231 10231 10231 10219 10210 10211 10209 10204 10200 10196 10191 10188 10184 10181 10179 10177 10175 10174 10171 10167 10165 10164 10162 10160 10158 10155 10151 10148 10145 10143 10141 10139 10137 10136 10134 10133 10132 10131 10130 10128 10127 10126 10124 10124 10124 10123 10122 10123 10122 10120 10117 10116 10116 10115 10114 10114 10113 10112 10111 10110 10109 10108 10106 10104 10102
10356 10351 10343 10336 10334 10325 10308 10296 10291 10285 10278 10275 10272 10269 10264 10257 10252 10246 10238 10232 10226 10218 10214 10214 10207 10200 10198 10194 10189 10185 10182 10179 10176 10170 10166 10164 10162 10161 10159 10155 10151 10148 10145 10144 10142 10139 10137 10133 10130 10128 10125 10122 10120 10118 10117 10116 10115 10114 10113 10111 10109 10108 10106 10105 10105 10105 10104 10104 10104 10103 10101 10100 10100 10100 10099 10099 10099 10098 10097 10095 10094 10093 10092 10090 10088 10086
10345 10340 10331 10325 10325 10317 10299 10286 10281 10273 10266 10262 10256 10250 10246 10242 10237 10232 10227 10220 10214 10206 10200 10197 10193 10189 10186 10181 10176 10172 10169 10167 10164 10159 10154 10148 10146 10146 10144 10140 10136 10133 10129 10127 10125 10121 10117 10114 10112 10109 10107 10104 10101 10098 10097 10096 10095 10094 10094 10092 10091 10089 10087 10086 10086 10086 10086 10086 10085 10083 10082 10083 10083 10082 10082 10082 10082 10081 10080 10079 10077 10076 10075 10074 10072 10069
10333 10327 10318 10311 10312 10306 10288 10275 10270 10262 10254 10249 10242 10234 10230 10227 10224 10219 10215 10210 10202 10194 10188 10183 10179 10176 10171 10166 10163 10160 10156 10154 10150 10146 10140 10133 10130 10130 10129 10125 10121 10117 10115 10112 10108 10103 10098 10095 10092 10089 10087 10085 10082 10080 10078 10076 10075 10074 10074 10073 10072 10071 10069 10068 10067 10067 10067 10067 10065 10064 10065 10065 10064 10064 10065 10065 10064 10063 10062 10061 10060 10059 10058 10057 10055 10052
10318 10312 10304 10296 10296 10292 10277 10265 10260 10251 10243 10237 10229 10222 10218 10214 10211 10207 10201 10197 10191 10183 10176 10171 10165 10162 10157 10152 10149 10145 10140 10136 10132 10128 10122 10116 10112 10111 10110 10108 10104 10099 10097 10094 10090 10085 10080 10076 10073 10070 10067 10065 10062 10060 10058 10057 10057 10055 10054 10054 10054 10052 10051 10050 10049 10048 10048 10047 10046 10046 10047 10047 10046 10046 10046 10046 10046 10045 10044 10043 10043 10042 10040 10039 10037 10035
10303 10296 10289 10280 10279 10278 10268 10258 10252 10243 10235 10228 10219 10213 10209 10204 10200 10196 10189 10184 10178 10171 10167 10162 10157 10153 10150 10145 10141 10137 10130 10123 10117 10111 10103 10096 10094 10093 10090 10087 10085 10081 10077 10074 10071 10066 10062 10058 10054 10051 10048 10045 10042 10040 10039 10038 10039 10039 10038 10037 10036 10034 10033 10032 10031 10031 10030 10029 10028 10028 10028 10028 10028 10027 10026 10026 10026 10026 10026 10026 10025 10024 10022 10021 10019 10018
10289 10282 10274 10266 10264 10264 10259 10251 10245 10237 10227 10220 10212 10206 10201 10196 10191 10187 10182 10174 10166 10160 10156 10153 10148 10144 10140 10137 10134 10131 10126 10118 10110 10101 10088 10078 10076 10078 10074 10068 10065 10062 10058 10054 10050 10046 10043 10040 10036 10033 10029 10026 10024 10022 10020 10019 10020 10022 10022 10021 10019 10018 10016 10015 10014 10013 10013 10012 10011 10011 10010 10010 10009 10008 10007 10007 10007 10007 10007 10007 10007 10006 10004 10003 10002 10002
10278 10271 10264 10256 10251 10249 10244 10239 10236 10230 10219 10210 10205 10199 10192 10187 10183 10180 10175 10165 10153 10149 10148 10144 10138 10133 10129 10125 10121 10118 10116 10111 10103 10091 10076 10066 10064 10063 10060 10054 10048 10043 10041 10037 10032 10028 10024 10020 10018 10016 10012 10008 10006 10005 10004 10003 10004 10006 10007 10005 10003 10002 10001 10000 9999 9998 9996 9995 9994 9993 9993 9992 9991 9991 9990 9990 9990 9990 9990 9990 9989 9989 9987 9986 9986 9985
10269 10263 10255 10248 10242 10237 10231 10224 10220 10217 10209 10199 10194 10189 10182 10176 10171 10168 10167 10154 10137 10134 10136 10131 10126 10121 10115 10110 10105 10102 10101 10099 10092 10076 10060 10055 10054 10049 10044 10040 10034 10028 10024 10020 10017 10013 10007 10002 10000 9999 9996 9992 9990 9988 9988 9989 9989 9990 9991 9989 9987 9987 9986 9985 9985 9983 9981 9979 9979 9977 9976 9976 9975 9975 9974 9975 9974 9974 9974 9973 9972 9972 9971 9971 9970 9969
10261 10254 10246 10239 10232 10226 10221 10214 10206 10202 10195 10186 10181 10175 10168 10163 10157 10155 10157 10147 10128 10120 10120 10116 10112 10108 10102 10095 10091 10086 10084 10084 10079 10061 10045 10041 10041 10034 10028 10024 10020 10016 10011 10007 10004 9999 9993 9988 9985 9982 9980 9978 9975 9972 9972 9975 9976 9975 9976 9974 9971 9971 9972 9971 9970 9969 9966 9965 9964 9963 9962 9961 9960 9959 9959 9959 9959 9958 9958 9957 9957 9956 9956 9956 9954 9953
10253 10244 10236 10229 10222 10214 10209 10203 10197 10192 10185 10175 10168 10161 10154 10148 10142 10137 10138 10134 10120 10111 10107 10102 10097 10093 10088 10082 10077 10071 10066 10067 10064 10048 10031 10026 10024 10017 10011 10008 10002 10000 9998 9994 9991 9987 9981 9976 9972 9969 9966 9964 9962 9958 9957 9960 9962 9960 9960 9959 9957 9956 9956 9956 9955 9954 9953 9952 9951 9949 9948 9947 9945 9944 9944 9943 9943 9943 9942 9942 9942 9942 9941 9939 9938 9938
10243 10235 10225 10217 10211 10202 10194 10188 10182 10178 10173 10166 10158 10150 10142 10135 10128 10122 10119 10115 10104 10095 10091 10087 10081 10076 10071 10066 10060 10054 10047 10047 10049 10037 10019 10011 10007 9999 9994 9990 9985 9981 9981 9979 9977 9974 9970 9965 9960 9957 9954 9952 9950 9948 9945 9946 9947 9945 9945 9944 9943 9942 9941 9940 9939 9939 9938 9938 9937 9935 9934 9932 9931 9930 9930 9929 9928 9928 9928 9928 9927 9926 9925 9923 9922 9922
10236 10227 10217 10208 10200 10191 10183 10176 10168 10162 10158 10152 10146 10140 10132 10123 10116 10110 10107 10102 10093 10082 10075 10071 10067 10061 10054 10049 10044 10039 10031 10027 10030 10027 10013 10001 9994 9986 9978 9975 9970 9965 9963 9962 9960 9959 9958 9954 9949 9946 9943 9940 9939 9939 9936 9935 9933 9931 9931 9930 9929 9928 9926 9925 9924 9923 9922 9922 9921 9921 9920 9918 9917 9917 9916 9916 9915 9914 9914 9913 9912 9910 9909 9908 9908 9907
10228 10219 10210 10200 10192 10184 10174 10166 10160 10153 10146 10139 10133 10127 10122 10115 10107 10101 10095 10090 10084 10075 10066 10059 10055 10049 10043 10038 10033 10028 10022 10013 10010 10010 10003 9993 9984 9975 9967 9962 9958 9952 9948 9946 9944 9943 9942 9939 9935 9933 9931 9929 9928 9928 9926 9924 9922 9919 9918 9917 9916 9914 9913 9911 9910 9909 9908 9907 9906 9905 9905 9903 9903 9903 9902 9902 9902 9900 9900 9899 9897 9896 9896 9895 9895 9894
10219 10211 10202 10193 10185 10177 10167 10158 10152 10146 10137 10128 10121 10115 10110 10105 10099 10093 10087 10078 10071 10065 10059 10051 10044 10038 10033 10029 10023 10018 10013 10005 9997 9993 9988 9981 9973 9965 9957 9951 9947 9942 9936 9932 9930 9929 9930 9926 9919 9915 9915 9915 9916 9916 9913 9910 9908 9906 9905 9904 9904 9902 9901 9900 9899 9897 9896 9895 9893 9892 9891 9889 9889 9889 9888 9888 9887 9886 9886 9885 9884 9883 9882 9882 9881 9881
10208 10201 10193 10184 10175 10169 10159 10149 10143 10138 10128 10119 10112 10106 10099 10093 10087 10082 10078 10070 10060 10053 10049 10045 10037 10030 10025 10021 10016 10009 10002 9996 9988 9981 9975 9968 9960 9953 9947 9941 9936 9932 9927 9922 9918 9916 9916 9914 9908 9903 9900 9900 9901 9902 9901 9898 9895 9892 9890 9890 9890 9889 9889 9888 9887 9886 9884 9883 9882 9881 9879 9878 9877 9876 9876 9875 9874 9874 9873 9872 9871 9871 9870 9869 9868 9867
10197 10189 10182 10174 10164 10156 10148 10137 10130 10125 10116 10104 10097 10092 10087 10081 10074 10067 10065 10062 10054 10044 10039 10035 10029 10021 10013 10009 10006 9999 9991 9985 9978 9971 9964 9956 9947 9941 9936 9930 9924 9921 9917 9913 9909 9906 9904 9901 9897 9893 9889 9887 9887 9888 9887 9886 9884 9880 9878 9877 9876 9875 9875 9874 9873 9873 9872 9871 9870 9869 9868 9867 9866 9865 9864 9863 9862 9862 9861 9860 9860 9859 9858 9856 9855 9853
10186 10178 10170 10163 10153 10144 10134 10124 10117 10111 10102 10091 10081 10074 10071 10067 10060 10053 10049 10046 10041 10034 10027 10022 10017 10009 10000 9993 9989 9984 9978 9971 9966 9959 9952 9946 9938 9932 9927 9921 9915 9910 9906 9902 9898 9896 9893 9890 9887 9883 9879 9876 9876 9875 9873 9872 9871 9868 9866 9865 9864 9862 9862 9861 9860 9859 9859 9858 9857 9856 9855 9854 9853 9852 9852 9851 9850 9849 9848 9847 9847 9845 9844 9843 9841 9840
10174 10166 10158 10151 10143 10135 10125 10114 10106 10099 10091 10080 10069 10061 10056 10052 10046 10039 10033 10028 10023 10017 10010 10004 9999 9993 9985 9976 9972 9969 9963 9956 9952 9947 9940 9934 9928 9922 9917 9912 9906 9901 9897 9893 9888 9885 9882 9880 9878 9874 9870 9866 9865 9864 9862 9861 9860 9857 9854 9853 9852 9851 9850 9849 9848 9847 9846 9845 9844 9843 9842 9841 9840 9839 9838 9837 9836 9835 9834 9833 9832 9831 9831 9829 9828 9828
10162 10154 10146 10138 10131 10123 10115 10106 10098 10090 10079 10068 10059 10053 10046 10039 10032 10023 10016 10011 10006 10000 9994 9988 9982 9977 9971 9963 9958 9956 9953 9945 9939 9935 9929 9921 9915 9910 9905 9901 9896 9892 9888 9884 9880 9876 9873 9870 9867 9864 9860 9857 9855 9854 9853 9851 9849 9847 9844 9842 9841 9840 9839 9838 9836 9835 9834 9833 9831 9830 9829 9828 9827 9826 9825 9824 9823 9822 9821 9821 9820 9819 9818 9817 9816 9816
10150 10142 10134 10127 10119 10110 10101 10093 10088 10081 10069 10053 10042 10038 10033 10026 10020 10011 10002 9995 9990 9985 9981 9976 9969 9964 9960 9954 9947 9944 9941 9934 9927 9923 9918 9911 9904 9899 9894 9889 9885 9881 9877 9874 9870 9867 9864 9861 9857 9853 9850 9847 9845 9844 9843 9842 9840 9837 9835 9833 9831 9830 9828 9827 9826 9824 9823 9822 9821 9820 9818 9817 9816 9815 9814 9813 9812 9811 9810 9810 9809 9808 9807 9806 9805 9805
10137 10128 10120 10114 10108 10098 10087 10078 10073 10070 10063 10047 10031 10024 10018 10012 10008 10003 9994 9986 9980 9973 9968 9964 9957 9949 9945 9942 9937 9933 9929 9922 9915 9910 9907 9902 9896 9890 9884 9879 9875 9870 9866 9863 9860 9858 9856 9853 9849 9845 9841 9838 9836 9834 9833 9832 9830 9828 9826 9824 9822 9820 9818 9817 9816 9814 9813 9812 9811 9809 9808 9807 9805 9804 9803 9802 9801 9801 9800 9799 9798 9797 9796 9795 9795 9794
10124 10116 10107 10100 10094 10086 10076 10067 10060 10057 10055 10045 10031 10021 10013 10004 9998 9994 9987 9979 9972 9965 9959 9955 9949 9940 9932 9926 9922 9920 9918 9913 9906 9900 9897 9892 9887 9883 9877 9871 9866 9861 9856 9853 9851 9848 9846 9843 9840 9836 9833 9831 9828 9826 9823 9822 9820 9818 9817 9815 9813 9811 9810 9808 9806 9805 9803 9802 9801 9799 9798 9796 9795 9794 9793 9792 9791 9790 9789 9788 9787 9786 9786 9785 9784 9783
10114 10106 10096 10088 10082 10075 10065 10054 10046 10040 10037 10032 10022 10013 10004 9995 9988 9983 9977 9970 9964 9957 9950 9944 9939 9934 9927 9919 9910 9905 9904 9902 9896 9891 9887 9882 9877 9874 9869 9863 9858 9853 9847 9844 9842 9838 9835 9833 9831 9828 9825 9823 9820 9817 9815 9813 9811 9810 9808 9806 9804 9802 9801 9799 9797 9796 9794 9793 9791 9789 9788 9787 9785 9784 9783 9782 9781 9780 9779 9778 9777 9776 9776 9775 9773 9772